This is the latest recevied weather packets stored in our database for station/object NY3Q. If no packets are shown the sender has not sent any weather packets the latest 10 day(s).
| Time | Temp. | Humidity | Pressure | Rain* | Wind** | Luminosity | Snow |
|---|---|---|---|---|---|---|---|
| 1777412650 | 23.33° C | 81% | 1019.3 hPa | 0 mm | - | 261 W/m² | - |
| 1777412348 | 23.33° C | 80% | 1019.3 hPa | 0 mm | - | 108 W/m² | - |
| 1777412043 | 23.33° C | 79% | 1019.4 hPa | 0 mm | - | 123 W/m² | - |
| 1777411743 | 23.89° C | 78% | 1019.4 hPa | 0 mm | - | 120 W/m² | - |
| 1777411438 | 23.89° C | 77% | 1019.5 hPa | 0 mm | - | 138 W/m² | - |
| 1777411132 | 24.44° C | 76% | 1019.6 hPa | 0 mm | - | 186 W/m² | - |
| 1777410827 | 24.44° C | 76% | 1019.7 hPa | 0 mm | - | 169 W/m² | - |
| 1777410525 | 24.44° C | 75% | 1019.5 hPa | 0 mm | - | 288 W/m² | - |
| 1777410225 | 24.44° C | 75% | 1019.5 hPa | 0 mm | - | 188 W/m² | - |
| 1777409920 | 25° C | 74% | 1019.9 hPa | 0 mm | - | 425 W/m² | - |
| 1777409615 | 25° C | 74% | 1019.8 hPa | 0 mm | - | 453 W/m² | - |
| 1777409312 | 25.56° C | 74% | 1020 hPa | 0 mm | - | 332 W/m² | - |
| 1777409007 | 25° C | 74% | 1020 hPa | 0 mm | - | 492 W/m² | - |
| 1777408705 | 25° C | 73% | 1020.2 hPa | 0 mm | - | 507 W/m² | - |
| 1777408400 | 25° C | 73% | 1020.1 hPa | 0 mm | - | 502 W/m² | - |
| 1777408095 | 25.56° C | 72% | 1020.2 hPa | 0 mm | - | 196 W/m² | - |
| 1777407790 | 25.56° C | 72% | 1020.4 hPa | 0 mm | - | 531 W/m² | - |
| 1777407486 | 25.56° C | 74% | 1020.6 hPa | 0 mm | - | 514 W/m² | - |
| 1777407181 | 25° C | 74% | 1020.5 hPa | 0 mm | - | 525 W/m² | - |
| 1777406876 | 25.56° C | 73% | 1020.4 hPa | 0 mm | - | 315 W/m² | - |
| 1777406572 | 25° C | 74% | 1020.6 hPa | 0 mm | - | 546 W/m² | - |
| 1777406267 | 25° C | 74% | 1020.7 hPa | 0 mm | - | 531 W/m² | - |
| 1777405966 | 25.56° C | 72% | 1020.8 hPa | 0 mm | - | 532 W/m² | - |
| 1777405663 | 25.56° C | 73% | 1020.8 hPa | 0 mm | - | 529 W/m² | - |
| 1777405360 | 25.56° C | 71% | 1021 hPa | 0 mm | - | 465 W/m² | - |
* Rain latest hour (hover to see other rain measurements)
** Current wind speed in m/s (hover to see current wind gust speed)